Mount Pleasant, MI

1:00 PM EDT on April 30, 2017 (GMT -0400)
Mount Pleasant Municipal

Weather History for KMOP - November, 2012

Change the Weather History Date:

Monday, November 12, 2012

  Actual Average (KAMN) Record (KAMN)
Temperature  
Mean Temperature 46 °F -  
Max Temperature 60 °F 43 °F 66 °F (1964)
Min Temperature 30 °F 28 °F 17 °F (1983)
Degree Days  
Heating Degree Days 20    
Moisture  
Dew Point 33 °F    
Average Humidity 76    
Maximum Humidity 90    
Minimum Humidity 52    
Precipitation  
Precipitation 0.10 in - - ()
Sea Level Pressure  
Sea Level Pressure 29.97 in    
Wind  
Wind Speed 13 mph (WSW)    
Max Wind Speed 21 mph    
Max Gust Speed 33 mph    
Visibility 10 miles    
Events Rain , Snow    
Averages and records for this station are not official NWS values.
T = Trace of Precipitation, MM = Missing Value Source: NWS Daily Summary

Daily Weather History Graph

Daily Weather History Graph

Search for Another Location

Airport or City:

Trip Planner

Search our weather history database for the weather conditions in past years. The results will help you decide how hot, cold, wet, or windy it might be!

Date:

Astronomy

Nov. 12, 2012 Rise Set
Actual Time 7:29 AM EST 5:16 PM EST
Civil Twilight 6:58 AM EST 5:46 PM EST
Nautical Twilight 6:24 AM EST 6:21 PM EST
Astronomical Twilight 5:50 AM EST 6:55 PM EST
Moon 5:52 AM EST (11/12) 4:21 PM EST (11/12)
Length of Visible Light 10h 47m
Length of Day
9h 46m
Waning Crescent, 2% of the Moon is Illuminated
Nov 12
Waning Crescent
Nov 13
New
Nov 20
First Quarter
Nov 28
Full
Dec 6
Last Quarter

Hourly Weather History & Observations

Time (EST) Temp. Windchill Dew Point Humidity Pressure Visibility Wind Dir Wind Speed Gust Speed Precip Events Conditions
12:15 AM 61.7 °F - 44.1 °F 52% 29.84 in 10.0 mi SSW 15.0 mph 25.3 mph N/A   Overcast
12:35 AM 60.4 °F - 46.0 °F 59% 29.84 in 10.0 mi South 18.4 mph 33.4 mph N/A   Light Drizzle
1:15 AM 60.1 °F - 45.9 °F 59% 29.83 in 10.0 mi SSW 16.1 mph 25.3 mph N/A   Overcast
1:55 AM 57.6 °F - 47.7 °F 70% 29.83 in 10.0 mi WSW 8.1 mph - N/A   Overcast
2:15 AM 54.9 °F - 50.2 °F 84% 29.84 in 5.0 mi SW 11.5 mph - N/A Rain Rain
2:35 AM 53.2 °F - 49.5 °F 87% 29.85 in 10.0 mi SSW 9.2 mph - N/A Rain Light Rain
2:55 AM 52.7 °F - 49.3 °F 88% 29.84 in 10.0 mi SSW 6.9 mph - 0.01 in Rain Light Rain
3:15 AM 52.7 °F - 49.5 °F 89% 29.83 in 10.0 mi South 5.8 mph - N/A Rain Light Rain
3:35 AM 52.7 °F - 49.5 °F 89% 29.84 in 10.0 mi SSW 9.2 mph - N/A Rain Light Rain
3:55 AM 52.3 °F - 49.5 °F 90% 29.84 in 10.0 mi SSW 9.2 mph 16.1 mph 0.01 in Rain Light Rain
4:15 AM 52.0 °F - 49.3 °F 90% 29.83 in 10.0 mi SSW 6.9 mph - 0.01 in Rain Light Rain
4:35 AM 51.8 °F - 49.1 °F 90% 29.82 in 10.0 mi SSW 6.9 mph - 0.02 in Rain Light Rain
4:55 AM 51.8 °F - 49.1 °F 90% 29.83 in 10.0 mi SSW 8.1 mph - 0.02 in Rain Rain
5:15 AM 49.8 °F - 46.0 °F 87% 29.85 in 7.0 mi West 19.6 mph 27.6 mph 0.02 in Rain Light Rain
5:35 AM 47.1 °F - 43.7 °F 88% 29.86 in 10.0 mi WSW 12.7 mph 18.4 mph 0.03 in Rain Rain
5:55 AM 46.4 °F 40.7 °F 43.0 °F 88% 29.87 in 10.0 mi WSW 12.7 mph - 0.04 in Rain Light Rain
6:15 AM 45.7 °F 39.8 °F 42.3 °F 88% 29.87 in 10.0 mi SW 12.7 mph 19.6 mph 0.01 in Rain Light Rain
6:35 AM 45.1 °F 39.9 °F 42.1 °F 89% 29.87 in 10.0 mi SW 10.4 mph - 0.01 in   Light Drizzle
6:55 AM 44.1 °F 37.1 °F 40.3 °F 87% 29.88 in 10.0 mi WSW 15.0 mph - 0.02 in Rain Rain
7:35 AM 43.2 °F 37.9 °F 39.7 °F 88% 29.88 in 10.0 mi SW 9.2 mph 16.1 mph N/A   Overcast
7:55 AM 43.0 °F 37.7 °F 39.6 °F 88% 29.88 in 10.0 mi SW 9.2 mph 16.1 mph N/A   Drizzle
8:15 AM 42.8 °F 36.6 °F 39.6 °F 88% 29.89 in 10.0 mi WSW 11.5 mph 17.3 mph N/A   Overcast
8:35 AM 42.8 °F 37.0 °F 39.2 °F 87% 29.89 in 10.0 mi WSW 10.4 mph 17.3 mph N/A Rain Light Rain
8:55 AM 41.9 °F 35.9 °F 38.1 °F 86% 29.90 in 10.0 mi WSW 10.4 mph - N/A   Overcast
9:15 AM 41.2 °F 36.6 °F 37.4 °F 86% 29.90 in 10.0 mi WSW 6.9 mph - N/A Rain Light Rain
9:35 AM 40.8 °F 34.5 °F 36.9 °F 86% 29.90 in 10.0 mi WSW 10.4 mph - N/A   Light Drizzle
9:55 AM 40.5 °F 34.6 °F 37.0 °F 88% 29.92 in 10.0 mi West 9.2 mph - N/A Rain Light Rain
10:15 AM 40.1 °F 32.0 °F 36.0 °F 85% 29.92 in 10.0 mi WSW 15.0 mph - N/A Rain Rain
10:35 AM 39.2 °F 30.5 °F 34.7 °F 84% 29.94 in 10.0 mi WSW 16.1 mph 24.2 mph N/A   Overcast
10:55 AM 38.5 °F 28.9 °F 33.6 °F 83% 29.94 in 10.0 mi WSW 18.4 mph 23.0 mph N/A   Overcast
11:15 AM 38.3 °F 31.4 °F 33.1 °F 81% 29.93 in 10.0 mi WSW 10.4 mph 16.1 mph N/A   Overcast
11:35 AM 37.6 °F 27.7 °F 31.8 °F 80% 29.95 in 10.0 mi WSW 18.4 mph 26.5 mph N/A   Overcast
11:55 AM 37.4 °F 28.5 °F 30.2 °F 75% 29.94 in 10.0 mi WSW 15.0 mph 27.6 mph N/A   Overcast
12:15 PM 36.9 °F 28.7 °F 30.2 °F 77% 29.95 in 10.0 mi West 12.7 mph 20.7 mph N/A   Overcast
12:35 PM 36.5 °F 27.4 °F 29.3 °F 75% 29.95 in 10.0 mi West 15.0 mph 23.0 mph N/A   Overcast
12:54 PM 36.3 °F 27.5 °F 29.1 °F 75% 29.96 in 10.0 mi WSW 13.8 mph 19.6 mph N/A   Overcast
1:35 PM 36.1 °F 28.2 °F 28.8 °F 75% 29.96 in 10.0 mi WSW 11.5 mph 21.9 mph N/A   Overcast
1:55 PM 36.1 °F 27.3 °F 28.9 °F 75% 29.96 in 10.0 mi West 13.8 mph 20.7 mph N/A   Overcast
2:15 PM 36.1 °F 27.7 °F 27.9 °F 72% 29.96 in 10.0 mi WSW 12.7 mph 24.2 mph N/A   Overcast
2:35 PM 35.8 °F 28.3 °F 28.0 °F 73% 29.97 in 10.0 mi WSW 10.4 mph 21.9 mph N/A   Overcast
2:55 PM 35.8 °F 28.8 °F 27.1 °F 71% 29.97 in 10.0 mi WSW 9.2 mph 21.9 mph N/A   Overcast
3:35 PM 36.0 °F 26.3 °F 25.0 °F 64% 29.98 in 10.0 mi WSW 16.1 mph 24.2 mph N/A   Overcast
3:55 PM 35.6 °F 26.2 °F 23.9 °F 62% 30.00 in 10.0 mi WSW 15.0 mph 26.5 mph N/A   Overcast
4:15 PM 34.7 °F 23.4 °F 22.8 °F 62% 30.01 in 10.0 mi WSW 20.7 mph 28.8 mph N/A   Overcast
4:35 PM 34.3 °F 24.2 °F 23.9 °F 66% 30.02 in 10.0 mi WSW 16.1 mph 24.2 mph N/A   Overcast
4:55 PM 33.8 °F 23.9 °F 23.0 °F 65% 30.03 in 10.0 mi SW 15.0 mph 27.6 mph N/A   Overcast
5:15 PM 33.3 °F 24.6 °F 22.8 °F 66% 30.03 in 10.0 mi SW 11.5 mph 25.3 mph N/A   Overcast
5:35 PM 32.9 °F 22.0 °F 23.5 °F 68% 30.05 in 10.0 mi WSW 17.3 mph 25.3 mph N/A   Overcast
5:55 PM 32.5 °F 23.2 °F 24.4 °F 72% 30.06 in 10.0 mi WSW 12.7 mph 17.3 mph N/A   Overcast
6:15 PM 32.4 °F 20.9 °F 24.1 °F 72% 30.07 in 10.0 mi West 18.4 mph 23.0 mph N/A   Overcast
6:35 PM 32.4 °F 20.6 °F 22.5 °F 67% 30.08 in 10.0 mi WSW 19.6 mph 29.9 mph N/A   Overcast
6:55 PM 32.2 °F 21.4 °F 22.8 °F 68% 30.09 in 10.0 mi WSW 16.1 mph 21.9 mph N/A   Overcast
7:15 PM 32.2 °F 21.8 °F 23.0 °F 69% 30.09 in 10.0 mi WSW 15.0 mph 19.6 mph N/A   Overcast
7:55 PM 32.0 °F 23.0 °F 24.6 °F 74% 30.10 in 10.0 mi WSW 11.5 mph - N/A   Overcast
8:15 PM 31.8 °F 23.3 °F 25.2 °F 76% 30.10 in 10.0 mi West 10.4 mph 19.6 mph N/A Snow Light Snow
8:35 PM 31.8 °F 22.3 °F 24.8 °F 75% 30.11 in 10.0 mi WSW 12.7 mph 16.1 mph N/A   Overcast
8:55 PM 31.8 °F 22.3 °F 25.2 °F 76% 30.11 in 10.0 mi WSW 12.7 mph 16.1 mph N/A   Overcast
9:15 PM 31.6 °F 21.6 °F 25.5 °F 78% 30.12 in 7.0 mi WSW 13.8 mph 20.7 mph N/A Snow Light Snow
9:35 PM 30.7 °F 19.2 °F 23.0 °F 73% 30.14 in 10.0 mi West 17.3 mph 25.3 mph N/A Snow Light Snow
9:55 PM 30.7 °F 20.4 °F 21.6 °F 69% 30.15 in 10.0 mi West 13.8 mph 21.9 mph N/A   Overcast
10:15 PM 30.9 °F 20.7 °F 20.5 °F 65% 30.16 in 10.0 mi West 13.8 mph 21.9 mph N/A   Overcast
10:35 PM 30.9 °F 21.2 °F 20.3 °F 65% 30.17 in 10.0 mi West 12.7 mph 18.4 mph N/A   Overcast
10:55 PM 30.9 °F 22.8 °F 19.4 °F 62% 30.18 in 10.0 mi WSW 9.2 mph 17.3 mph N/A   Overcast
11:14 PM 30.9 °F 22.8 °F 18.5 °F 60% 30.19 in 10.0 mi WSW 9.2 mph - N/A   Overcast
11:35 PM 30.7 °F 23.3 °F 18.5 °F 60% 30.20 in 10.0 mi WSW 8.1 mph - N/A   Overcast
11:55 PM 30.9 °F 21.7 °F 18.3 °F 60% 30.20 in 10.0 mi WSW 11.5 mph - N/A   Overcast